User: anonymous   Login
Location: Stoke Bliss
(52.2667°N, 2.5167°W)
Time: 02:55:09
(UTC+00:00)
Language:

MOS 1 Rocket - Orbit

View from above orbital plane
View from above orbital plane
View from above satellite
View from above satellite

Ground track
Ground track

The orbit data is extracted from the following two-line orbital elements,

1 17528U 87018B   21137.01976793  .00000114  00000-0  33838-4 0  9998
2 17528  97.4088 312.7223 0152583 135.9740 225.3729 14.51056035786599
Epoch (UTC): 17 May 2021 00:28:27
Eccentricity: 0.0152583
inclination: 97.4088°
perigee height: 614 km
apogee height: 830 km
right ascension of ascending node: 312.7223°
argument of perigee: 135.9740°
revolutions per day: 14.51056035
mean anomaly at epoch: 225.3729°
orbit number at epoch: 78659

The dashed part of the orbit path shows where the satellite is in the earth's shadow,  

DLR